Regional Weather Roundup
Issued by NWS

Home | Current Version | Previous Version | Text Only | Print | Product List | Glossary On
Versions: 1 2 3 4 5 6 7 8 9 10 11 12 13 14 15 16 17 18 19 20 21 22 23 24 25 26 27 28 29 30 31 32 33 34 35 36 37 38 39 40 41 42 43 44 45 46 47 48 49 50
000
ASUS44 KFWD 132101
RWRTX
NORTH TEXAS HOURLY WEATHER ROUNDUP
NATIONAL WEATHER SERVICE FORT WORTH TX
300 PM CST SAT FEB 13 2016

NOTE: "FAIR" INDICATES FEW OR NO CLOUDS BELOW 12,000 FEET WITH NO
SIGNIFICANT WEATHER AND/OR OBSTRUCTIONS TO VISIBILITY.

TXZ118-119-132200-
DALLAS/FORT WORTH METROPLEX

CITY           SKY/WX    TMP DP  RH WIND       PRES   REMARKS
DFW AIRPORT    MOSUNNY   65  37  35 S10       30.22F
DALLAS LOVE    MOSUNNY   65  37  35 SE14      30.23F
FTW MEACHAM    SUNNY     67  41  38 SE12G21   30.21F
DAL-EXECUTIVE  SUNNY     65  39  38 SE12      30.22F
FTW-ALLIANCE   MOSUNNY   66  39  37 S12G21    30.21F
FTW-NAS-JRB    MOSUNNY   68  39  34 SE14      30.22F
FTW-SPINKS     SUNNY     70  43  37 SE9G18    30.22F
ARLINGTON      SUNNY     67  40  37 SE14      30.22F
GRAND PRAIRIE  SUNNY     64  39  39 SE10      30.24F
MESQUITE       SUNNY     64  36  34 E10G16    30.25F
LANCASTER      SUNNY     64  35  34 SE12      30.25F
$$

TXZ091>094-102>105-117-120-121-131>134-132200-
NORTH CENTRAL TEXAS

CITY           SKY/WX    TMP DP  RH WIND       PRES   REMARKS
GAINESVILLE    SUNNY     60  37  41 SE12G17   30.23F
BRIDGEPORT     SUNNY     66  43  43 SE9       30.22F
DECATUR        SUNNY     63  36  36 SE12      30.21F
DENTON         SUNNY     63  38  39 SE13G20   30.22F
MCKINNEY       SUNNY     61  37  41 SE13      30.24F
ROCKWALL       SUNNY     63  37  39 SE9G17    30.24F
TERRELL        MOSUNNY   63  37  38 SE9       30.26F
WAXAHACHIE     SUNNY     65  42  43 E8        30.25F
GRANBURY       SUNNY     69  44  39 SE9G16    30.21F
$$

TXZ083>090-098>101-113>116-127>130-139>142-154-155-132200-
WESTERN NORTH TEXAS

CITY           SKY/WX    TMP DP  RH WIND       PRES   REMARKS
WICHITA FALLS  SUNNY     64  36  35 S10       30.17F
WF-KICKAPOO    SUNNY     66  35  32 SE15G25   30.18F
VERNON         SUNNY     61  29  28 S12       30.16F
ABILENE        SUNNY     73  44  35 S18G25    30.14F
ABILENE-DYESS  SUNNY     73  46  38 S18G25    30.11F
MINERAL WELLS  SUNNY     70  41  34 SE10      30.18F
COMANCHE       SUNNY     74  46  37 S13       30.18F
BROWNWOOD      SUNNY     73  45  35 S10G17    30.16F
$$

TXZ143>147-156>162-174-175-132200-
CENTRAL TEXAS

CITY           SKY/WX    TMP DP  RH WIND       PRES   REMARKS
WACO           MOSUNNY   71  49  45 S14       30.22F
WACO-TSTC      SUNNY     72  50  46 S10G18    30.23F
WACO-MCGREGOR  SUNNY     73  52  47 S15G22    30.22F
CORSICANA      PTSUNNY   68  41  37 SE8       30.26F
HEARNE         CLOUDY    70  55  58 S7        30.26F
TEMPLE         MOSUNNY   72  55  55 S17       30.22F
KILLEEN        SUNNY     73  48  40 S12G21    30.19F
KILLEEN-SKYLRK SUNNY     73  51  46 S10G17    30.20F
FORT HOOD      SUNNY     74  48  40 S10G18    30.19F
HAMILTON       SUNNY     72  48  41 S13G18    30.21F
$$

TXZ095>097-106>112-122>126-135>138-148>153-164>167-132200-
EAST TEXAS

CITY           SKY/WX    TMP DP  RH WIND       PRES   REMARKS
PARIS          SUNNY     57  30  35 SE13      30.30F
SULPHUR SPRNGS SUNNY     59  34  39 SE7       30.30F
MINEOLA        SUNNY     61  34  36 SE6       30.29F
TYLER          SUNNY     64  35  34 SE14      30.28F
LONGVIEW       SUNNY     59  34  39 E10       30.30F
ATHENS         PTSUNNY   63  37  39 SE8       30.25F
NACOGDOCHES    SUNNY     64  37  36 SE7       30.29F
LUFKIN         MOSUNNY   65  38  36 SE12      30.29F
$$

SUPPLEMENTAL OBSERVATIONS (CENTRAL)

CITY           SKY/WX    TMP DP  RH WIND       PRES   REMARKS
$$

SUPPLEMENTAL OBSERVATIONS (WEST)

CITY           SKY/WX    TMP DP  RH WIND       PRES   REMARKS
$$

SUPPLEMENTAL OBSERVATIONS (EAST)

CITY           SKY/WX    TMP DP  RH WIND       PRES   REMARKS
$$

SUPPLEMENTAL OBSERVATIONS ARE A COLLECTION OF AUTOMATED INSTRUMENTS
THAT ARE MAINTAINED BY A VARIETY OF FEDERAL AND STATE AGENCIES.
CERTAIN ELEMENTS...SUCH AS HUMIDITY VALUES AND SUSTAINED WIND
SPEEDS...MAY BE APPROXIMATED.




USA.gov is the U.S. government's official web portal to all federal, state and local government web resources and services.